Location: Sungai Bunut
(2.6333°N, 113.7333°E)
Time: 08:16:52
(UTC+00:00)

Vanguard 3 - Pass Details

Date: 07 December 2023
Orbit: 508 x 3239 km, 33.3° (Epoch: 21 February)

Event Time Altitude Azimuth Distance (km) Brightness Sun altitude
Rises 14:38:35 0° 291° (WNW) 6,315 11.9 -59.0°
Enters shadow 14:44:56 - 309° (NW) 5,045 11.2 -60.1°
Maximum altitude 14:50:34 10° 334° (NNW) 4,193 - -61.1°
Drops below altitude 10° 14:50:51 10° 335° (NNW) 4,162 - -61.2°
Sets 14:59:04 0° 21° (NNE) 4,191 - -62.6°
